Regional Weather Roundup
Issued by NWS

Home | Current Version | Previous Version | Text Only | Print | Product List | Glossary Off
Versions: 1 2 3 4 5 6 7 8 9 10 11 12 13 14 15 16 17 18 19 20 21 22 23 24 25 26 27 28 29 30 31 32 33 34 35 36 37 38 39 40 41 42 43 44 45 46 47 48 49 50

000
ASUS45 KABQ 301701
RWRNM
NEW MEXICO REGIONAL WEATHER ROUNDUP
NATIONAL WEATHER SERVICE ALBUQUERQUE NM
1100 AM MDT THU JUL 30 2015

NOTE: "FAIR" MEANS FEW OR NO CLOUDS BELOW 12,000 FEET AGL WITH NO
       SIGNIFICANT WEATHER OR OBSTRUCTIONS TO VISION.

      THIS PRODUCT IS RELEASED AS TWO VERSIONS.  ONE VERSION NEAR
      THE TOP OF THE HOUR CONTAINING PRELIMINARY DATA FROM ALBUQUERQUE
      AND OTHER STATIONS.  A FINAL VERSION WITH ADDITIONAL DATA IS
      ISSUED ABOUT 10 MINUTES AFTER THE HOUR.

NMZ501-503-504-510>518-301800-
NORTHWEST PLATEAU/NORTHCENTRAL MOUNTAINS

CITY           SKY/WX    TMP DP  RH WIND       PRES   REMARKS
FARMINGTON     SUNNY     78  54  43 SE9       30.37S
SANTA FE       CLOUDY    64  58  80 N6        30.46R
TAOS           CLOUDY    64  46  52 CALM      30.51F

$$
NMZ402-403-502-505>509-301800-
WESTCENTRAL MOUNTAINS/SOUTHWEST MOUNTAINS

CITY           SKY/WX    TMP DP  RH WIND       PRES   REMARKS
GALLUP         CLOUDY    68  57  68 E5        30.44S
SILVER CITY      N/A     72  59  64 E9        30.39S

$$
NMZ407-409-411-412-301800-
SOUTHERN DESERTS

CITY           SKY/WX    TMP DP  RH WIND       PRES   REMARKS
DEMING         MOSUNNY   76  61  59 E9        30.30F
ALAMOGORDO     PTSUNNY   77  63  61 NW10      30.27F
T OR C         CLOUDY    71  61  70 NE6       30.34F

$$
NMZ519>523-301800-
CENTRAL VALLEYS/CENTRAL HIGHLANDS

CITY           SKY/WX    TMP DP  RH WIND       PRES   REMARKS
ALBUQUERQUE    PTSUNNY   72  60  66 NW5       30.39F
DOUBLE EAGLE   PTSUNNY   72  61  68 N8        30.43S
CLINES CORNERS CLOUDY    64  58  80 S8        30.48S
BELEN          PTSUNNY   69  60  72 CALM      30.39S
SOCORRO        NOT AVBL

$$
NMZ524>526-539-540-301800-
SOUTHCENTRAL MOUNTAINS

CITY           SKY/WX    TMP DP  RH WIND       PRES   REMARKS
RUIDOSO          N/A    N/A N/A N/A MISG        N/A

$$
NMZ527>531-301800-
NORTHEAST HIGHLANDS/NORTHEAST PLAINS

CITY           SKY/WX    TMP DP  RH WIND       PRES   REMARKS
LAS VEGAS      CLOUDY    62  54  74 CALM      30.48F
RATON          CLOUDY    66  56  70 S6        30.43F
CLAYTON        PTSUNNY   74  57  55 SW6       30.36F

$$
NMZ532>537-301800-
EASTCENTRAL PLAINS

CITY           SKY/WX    TMP DP  RH WIND       PRES   REMARKS
TUCUMCARI      PTSUNNY   76  62  62 CALM      30.32R
CANNON AFB     NOT AVBL
CLOVIS AIRPORT MOSUNNY   81  61  50 N12G18    30.33S

$$
NMZ028-029-538-301800-
SOUTHEAST PLAINS

CITY           SKY/WX    TMP DP  RH WIND       PRES   REMARKS
ROSWELL        SUNNY     82  61  48 N8        30.29S
ARTESIA        SUNNY     81  63  54 VRB3G12   30.28F
CARLSBAD         N/A    N/A N/A N/A MISG      30.23F
HOBBS          SUNNY     86  61  42 N9        30.27F


$$



USA.gov is the U.S. government's official web portal to all federal, state and local government web resources and services.